Regional Weather Roundup
Issued by NWS

Home | Current Version | Previous Version | Graphics & Text | Print | Product List | Glossary On
Versions: 1 2 3 4 5 6 7 8 9 10 11 12 13 14 15 16 17 18 19 20 21 22 23 24 25 26 27 28 29 30 31 32 33 34 35 36 37 38 39 40 41 42 43 44 45 46 47 48 49 50
000
ASUS43 KIND 182109
RWRIN

WEATHER ROUNDUP FOR INDIANA
NATIONAL WEATHER SERVICE INDIANAPOLIS IN
400 PM EST WED JAN 18 2017

NOTE: "FAIR" INDICATES FEW OR NO CLOUDS BELOW 12,000 FEET WITH NO
SIGNIFICANT WEATHER AND/OR OBSTRUCTIONS TO VISIBILITY.

* - STATION DOES NOT REPORT WEATHER SUCH AS PRECIPITATION OR FOG.

+ - STATION NOT QUALITY CONTROLLED BY THE NATIONAL WEATHER SERVICE.
    USE DATA WITH CAUTION...ESPECIALLY DEWPOINT AND RELATIVE
    HUMIDITY OBSERVATIONS.

INZ001>003-010>013-019-020-182200-
NORTHWEST INDIANA

CITY           SKY/WX    TMP DP  RH WIND       PRES   REMARKS
GARY /AIRPORT/ PTSUNNY   39  32  75 MISG      30.08F
KNOX *+        CLOUDY    34  27  75 SW12      30.09S WCI  25
LA PORTE +     CLOUDY    34  33  98 SW12      30.09R FOG     WCI  25
MICHIGAN CITY+ CLOUDY    34  34 100 SW13      30.09R FOG     WCI  25
MONTICELLO +   CLOUDY    36  34  92 W10       30.10S
RENSSELAER +     N/A     37  36  93 SW7       30.10S
VALPARAISO     CLOUDY    37  34  89 SW13      30.09S

$$

LMZ046-743>745-182200-
SOUTHERN LAKE MICHIGAN

STATION/POSITION TIME  TEMP    WIND        PRES    WAVE
                       AIR SEA DIR/SP/G            HT
                 (UTC) (F)     (DEG/KT/KT) (MB)    (FT)
BURNS HARBOR     2040   36     220/ 12/ 16 1019.0F

$$

INZ004-005-014>016-021>024-182200-
NORTH CENTRAL INDIANA

CITY           SKY/WX    TMP DP  RH WIND       PRES   REMARKS
ELKHART        CLOUDY    36  32  87 SW9       30.08  FOG
LOGANSPORT +   CLOUDY    34  34 100 SW9       30.12S FOG     WCI  26
PERU/GRISSOM   CLOUDY    36  36 100 SW9       30.09S
ROCHESTER +    CLOUDY    36  36 100 SW12      30.11R FOG
SOUTH BEND     CLOUDY    33  33 100 SW17      30.09R FOG     WCI  22
WARSAW +       CLOUDY    34  30  86 SW8       30.09S FOG     WCI  27

$$

INZ006>009-017-018-025>027-182200-
NORTHEAST INDIANA

CITY           SKY/WX    TMP DP  RH WIND       PRES   REMARKS
ANGOLA *+      CLOUDY    34  34 100 SW10      30.06F WCI  26
AUBURN +       CLOUDY    36  32  87 SW9       30.09F FOG
FORT WAYNE     CLOUDY    36  33  89 SW13      30.10F
HUNTINGTON +   CLOUDY    35  34  96 SW9       30.10S WCI  28
KENDALLVILLE + CLOUDY    34  34 100 W12       30.07F FOG     WCI  26

$$

INZ028-029-035-036-043>045-051>053-182200-
WEST CENTRAL INDIANA

CITY           SKY/WX    TMP DP  RH WIND       PRES   REMARKS
CRAWFORDSVL +  CLOUDY    36  36 100 SW9       30.12F
GREENCASTLE +  CLOUDY    37  36  93 S5        30.14S
LAFAYETTE      CLOUDY    37  35  92 SW9       30.10F
TERRE HAUTE    CLOUDY    40  34  79 S9        30.15F

$$

INZ030>032-037>040-046>048-054>057-064-065-182200-
CENTRAL INDIANA

CITY           SKY/WX    TMP DP  RH WIND       PRES   REMARKS
ANDERSON       CLOUDY    37  36  93 SW6       30.12F
CP ATTERBURY + CLOUDY    39  36  87 S5        30.15F
FISHERS *+     CLOUDY    36  36 100 SW8       30.12F
FRANKFORT +    CLOUDY    39  37  93 SW12      30.12F
GREENWOOD *+   CLOUDY    39  38  94 SW7       30.14F
INDIANAPOLIS   CLOUDY    38  35  89 SW10      30.12F
-EAGLE CREEK   CLOUDY    38  35  89 SW8       30.11F
KOKOMO +       CLOUDY    36  35  96 SW10      30.11F
MARION +       CLOUDY    36  34  93 SW10      30.11F FOG
MT COMFORT *+  CLOUDY    37  36  93 W8        30.12F
SHELBYVILLE    CLOUDY    40  35  83 SW8       30.13F
ZIONSVILLE +   CLOUDY    36  35  96 W10       30.12F

$$

INZ033-034-041-042-049-050-058-059-182200-
EAST CENTRAL INDIANA

CITY           SKY/WX    TMP DP  RH WIND       PRES   REMARKS
MUNCIE         CLOUDY    38  35  89 SW6       30.10F

$$

INZ060-061-067>069-081>083-085>088-182200-
SOUTHWEST INDIANA

CITY           SKY/WX    TMP DP  RH WIND       PRES   REMARKS
EVANSVILLE     MOSUNNY   45  35  68 SW5       30.16F
HUNTINGBURG *+ CLOUDY    41  35  79 CALM      30.17S
WASHINGTON +   CLOUDY    40  36  83 S7        30.16F

$$

INZ062-063-066-070>080-084-089>092-182200-
SOUTH CENTRAL AND SOUTHEAST INDIANA

CITY           SKY/WX    TMP DP  RH WIND       PRES   REMARKS
BLOOMINGTON    CLOUDY    40  35  83 S5        30.15S
MADISON *+     CLOUDY    41  36  81 SW6       30.18S
NORTH VERNON + CLOUDY   N/A N/A N/A SW6       30.16F
SEYMOUR +      CLOUDY    43  36  75 W5        30.16S

$$





USA.gov is the U.S. government's official web portal to all federal, state and local government web resources and services.